Location: Hartha
(51.1030°N, 12.9600°E)
Time: 05:47:43
(UTC+02:00)

Daily predictions for brighter satellites

Satellite Brightness Start Highest point End
(mag) Time Altitude Azimuth Time Altitude Azimuth Time Altitude Azimuth
ATLAS 3B R/B 4.1 00:32:11 10° NW 00:38:39 37° NNE 00:38:39 37° NNE
USA 215 4.2 02:27:15 10° E 02:31:38 41° ENE 02:31:38 41° ENE
Cosmos 2082 Rocket 4.1 02:36:43 26° NNE 02:36:43 26° NNE 02:39:14 10° NNE
ATLAS 2AS CENTAUR R/B 3.6 02:38:42 47° ENE 02:38:42 47° ENE 02:43:42 10° NE
COSMOS 2428 4.3 02:46:23 10° NNW 02:57:09 - ESE 02:50:34 31° NNE
SL-16 R/B 3.6 02:56:19 39° N 02:56:19 39° N 03:00:11 10° NNW
Lacrosse 4 Rocket 4.5 02:58:05 13° NNE 02:58:05 13° NNE 02:58:35 10° NNE
ATLAS CENTAUR R/B 3.5 03:13:02 76° ENE 03:13:02 76° ENE 03:23:45 10° ENE
USA 281 3.9 03:10:21 10° NE 03:16:29 46° ESE 03:16:29 46° ESE
Resurs 1-4 Rocket 3.5 03:15:35 10° NNE 03:18:25 33° NNE 03:18:25 33° NNE
ADEOS II 3.0 03:35:30 10° NNE 03:39:02 44° NNE 03:39:02 44° NNE
ATLAS CENTAUR R/B 4.0 03:51:09 14° NNE 03:51:09 14° NNE 03:53:00 10° ENE
CZ-2D R/B 3.2 03:46:13 10° N 03:49:36 36° NNW 03:49:36 36° NNW
IDEFIX/ARIANE 42P 3.8 03:47:25 10° N 03:50:34 34° N 03:50:34 34° N
Meteor 2-12 Rocket 4.5 03:53:49 74° ESE 03:53:57 74° E 04:00:07 10° NNE
ALOS 3.3 03:49:57 10° NNE 03:53:35 43° ENE 03:53:35 43° ENE
CZ-2C R/B 3.8 04:00:12 33° NNW 04:00:12 33° NNW 04:03:04 10° NNW
Cosmos 1655 Rocket 4.0 03:57:46 77° SE 03:58:08 81° E 04:04:34 10° NNE
CZ-2C R/B 3.9 04:01:37 10° NNE 04:05:50 31° E 04:07:19 25° SE
Cosmos 2237 Rocket 3.2 04:05:05 10° NNW 04:10:34 45° NE 04:15:59 10° ESE
Sich 1 4.1 04:08:29 10° N 04:12:39 43° ENE 04:13:26 39° ESE
USA 215 3.2 04:09:48 10° ESE 04:16:23 85° NNE 04:18:58 41° WNW
Lacrosse 5 rocket 2.6 04:18:57 39° NE 04:18:57 39° NE 04:21:28 10° ENE
Cosmos 2082 Rocket 4.1 04:18:33 17° NW 04:19:05 17° NNW 04:22:43 10° N
SL-16 R/B 4.3 04:15:43 10° NNW 04:20:20 25° NE 04:24:57 10° E
MSX 4.5 04:15:12 10° N 04:19:47 41° NW 04:19:47 41° NW
Cosmos 1536 3.9 04:17:37 10° N 04:21:00 41° ENE 04:21:00 41° ENE
ATLAS 5 CENTAUR R/B 3.8 04:22:54 15° NNW 04:24:11 17° N 04:27:21 10° NE
GP-B 4.2 04:22:09 25° SE 04:24:16 43° E 04:28:28 10° N
FENGYUN 3A 3.6 04:21:15 10° N 04:26:23 67° NW 04:26:23 67° NW
ATLAS 2AS CENTAUR R/B 3.4 04:26:08 39° WNW 04:27:54 46° NNW 04:34:43 10° NE
Cosmos 2266 Rocket 4.2 04:33:28 50° WNW 04:33:32 50° WNW 04:39:47 10° N
Cosmos 2298 Rocket 4.3 04:32:37 45° SSE 04:34:03 63° ESE 04:39:17 10° NNE
Lacrosse 4 Rocket 4.0 04:34:09 11° NNW 04:34:27 11° NNW 04:35:55 10° N
Cosmos 2221 4.3 04:37:39 21° NNW 04:37:39 21° NNW 04:39:29 10° N
COSMOS 2428 4.1 04:30:29 10° NW 04:39:34 24° S 04:41:42 10° SSE
SL-16 R/B 4.1 04:41:25 18° NW 04:41:25 18° NW 04:43:23 10° NW
Cosmos 2315 Rocket 4.2 04:34:02 10° NNW 04:39:53 48° W 04:39:53 48° W
Cosmos 614 Rocket 4.4 04:39:40 10° NNW 04:44:47 63° ENE 04:49:54 10° SE
Cosmos 2150 Rocket 4.1 04:43:26 44° S 04:45:05 75° ESE 04:50:21 10° NNE
USA 229 DEB 3.9 04:40:05 10° NW 04:47:21 65° SW 04:55:11 10° SSE
USA 229 3.9 04:40:11 10° NW 04:47:27 65° SW 04:55:18 10° SSE
Thor Agena Rocket 3.6 04:43:21 10° N 04:48:33 59° WNW 04:49:04 56° W
Cosmos 2227 Rocket 4.3 04:45:57 10° SSE 04:50:25 24° ESE 04:54:54 10° NE
CZ-2C R/B 3.2 04:46:55 10° N 04:52:37 68° WNW 04:54:11 47° SW
Nadezhda 2 Rocket 4.5 04:51:13 20° S 04:55:53 89° WNW 05:02:21 10° N
Resurs 1-4 Rocket 3.8 04:56:33 10° NNW 04:59:28 18° NW 04:59:28 18° NW
USA 281 3.5 04:54:56 10° NNE 05:01:12 48° NW 05:03:21 36° W
NOSS 0 Rocket 3.9 04:57:10 10° NW 05:03:19 60° WSW 05:09:25 10° SSE
Meteor 1-27 Rocket 4.0 05:00:28 10° S 05:06:02 69° E 05:11:48 10° NNE
YAOGAN 11 4.0 05:02:32 10° S 05:06:59 66° WSW 05:11:25 10° NNW
YAOGAN 6 2.3 05:06:48 10° NNE 05:10:13 90° W 05:10:36 68° SSW
Nadezhda 1 Rocket 4.0 05:04:02 10° N 05:10:23 85° E 05:16:34 10° S
Cosmos 1151 Rocket 3.1 05:07:36 19° S 05:10:42 76° E 05:15:05 10° NNE
SL-08 R/B 4.3 05:06:02 11° S 05:11:52 85° W 05:18:01 10° N
Envisat 2.9 05:11:07 10° NNE 05:16:13 81° WNW 05:20:01 18° SSW
Cosmos 1980 3.6 05:11:14 10° NNW 05:16:53 68° WSW 05:22:29 10° SSE
IRS-1D 3.6 05:12:31 10° N 05:17:43 58° WNW 05:20:11 30° SW
ADEOS II 3.6 05:16:12 10° N 05:19:48 19° NW 05:19:55 19° NW
ATLAS CENTAUR R/B 4.5 05:16:33 23° WNW 05:22:08 63° N 05:37:07 10° E
Meteor 1-11 Rocket 3.9 05:16:47 10° NNW 05:22:32 54° W 05:28:18 10° S
Cosmos 1666 Rocket 3.5 05:18:48 10° N 05:23:12 89° E 05:27:32 10° S
Cosmos 1484 Rocket 3.1 05:21:07 10° NNE 05:24:43 59° E 05:28:18 10° S
Cosmos 1328 Rocket 4.3 05:20:41 10° S 05:24:58 53° E 05:29:15 10° NNE
NOAA 11 4.2 05:20:12 10° NNE 05:25:45 89° ESE 05:31:14 10° SSW
Meteor 2-9 Rocket 4.2 05:20:12 10° NNW 05:26:03 76° W 05:31:47 10° S
Meteor 2-20 4.4 05:20:02 10° NNW 05:26:12 72° W 05:32:18 10° S
ATLAS CENTAUR R/B 1.8 05:26:36 12° NNW 05:29:48 51° NE 05:33:18 10° ESE
Cosmos 1386 Rocket 4.4 05:23:48 10° S 05:30:06 86° W 05:36:19 10° N
Helios 1A 3.0 05:26:10 10° SSE 05:30:15 81° ENE 05:34:22 10° NNW
CZ-2D R/B 4.1 05:28:19 10° NNW 05:30:23 12° NW 05:30:54 12° NW
COSMO-SKYMED 1 4.3 05:26:32 10° SE 05:30:30 36° ENE 05:34:29 10° N
ALOS 3.4 05:27:44 10° N 05:31:31 25° WNW 05:31:58 25° WNW
Cosmos 1125 Rocket 4.1 05:30:06 29° W 05:31:50 37° NW 05:36:41 10° NNE
ERS-2 4.4 05:32:59 10° NE 05:35:33 22° E 05:38:05 10° SSE
COBE Rocket 3.8 05:33:45 10° N 05:38:34 66° WNW 05:43:28 10° SSW
CZ-2C R/B 2.8 05:39:41 10° N 05:44:06 39° WNW 05:46:39 21° WSW
Cosmos 1726 1.8 05:40:59 10° NNW 05:44:26 85° WSW 05:47:52 10° S
Cosmos 2297 Rocket 2.2 05:41:18 10° SSW 05:46:58 86° WNW 05:52:40 10° NNE
Cosmos 1709 Rocket 4.2 05:41:52 10° S 05:48:14 80° E 05:54:36 10° NNE
Meteor 2-10 3.9 05:43:02 10° NNW 05:48:21 83° W 05:53:28 10° S
Sich 1 4.1 05:46:32 10° NW 05:49:55 23° W 05:50:06 23° W
PAYLOAD A 4.4 05:45:25 10° N 05:50:00 41° WNW 05:53:50 15° SW
Cosmos 44 Rocket 3.4 05:45:58 16° SW 05:50:00 83° NW 05:55:15 10° NE
Cosmos 1633 Rocket 3.0 05:46:32 10° NNW 05:50:53 60° W 05:55:13 10° S
H-2A R/B 2.7 05:47:47 10° NNE 05:51:17 72° ESE 05:54:45 10° S
Cosmos 2237 Rocket 2.6 05:49:20 10° NW 05:54:35 39° WSW 05:59:48 10° S
Lacrosse 5 rocket 2.2 05:54:07 18° WNW 05:56:32 36° N 06:00:06 10° ENE
CBERS-1 4.1 05:51:44 10° N 05:56:44 55° WNW 06:01:43 10° SW
Cosmos 1939 Rocket 3.9 05:53:21 10° NNE 05:57:07 48° E 06:00:54 10° S
Cosmos 1536 4.3 05:54:26 10° NW 05:56:18 17° WNW 05:56:18 17° WNW
Cosmos 2219 4.1 05:53:30 10° S 05:58:56 50° ESE 06:04:22 10° NE
USA 215 3.7 05:53:44 10° SSE 05:59:49 40° SW 06:05:56 10° WNW
GP-B 4.2 05:59:35 17° WSW 06:01:42 24° W 06:05:17 10° NNW
Cosmos 1745 Rocket 4.1 05:56:17 10° SSW 06:02:31 60° WNW 06:08:51 10° N
Cosmos 407 Rocket 4.2 05:57:30 10° NNW 06:02:50 60° ENE 06:08:06 10° SE
SL-16 R/B 2.2 05:59:28 10° NNW 06:05:13 88° WSW 06:10:56 10° SSE
IRS-1C 4.1 06:01:57 10° NNE 06:07:20 89° WNW 06:12:41 10° SSW
ATLAS 5 CENTAUR R/B 3.6 06:05:40 10° NW 06:09:43 30° NNE 06:14:30 10° E
ARIANE 5 R/B 2.5 06:04:42 10° NNE 06:09:46 89° ESE 06:14:46 10° SSW
Okean 1 4.0 06:06:45 11° SW 06:10:05 32° WNW 06:13:36 10° N
Cosmos 1975 2.8 06:11:46 10° NNW 06:15:38 55° W 06:19:30 10° S
Cosmos 1733 3.4 06:13:53 10° NNW 06:17:25 44° W 06:20:55 10° SSW
SKYMED 2 3.5 06:14:05 10° SSE 06:18:26 84° WSW 06:22:49 10° NNW
BREEZE-M DEB (TANK) 3.9 06:11:12 10° WSW 06:20:17 58° SSE 06:23:30 10° E
ATLAS 2AS CENTAUR R/B 4.0 06:14:15 10° WNW 06:20:32 30° N 06:26:32 10° ENE
Cosmos 1766 4.2 06:17:18 10° N 06:21:00 51° ENE 06:24:41 10° SSE
Cosmos 2344 3.7 06:14:22 10° SSW 06:21:48 74° SE 06:29:21 10° NE
Genesis I 3.1 06:21:13 10° NW 06:24:52 59° SW 06:28:30 10° SSE
Cosmos 1470 Rocket 4.0 06:24:28 10° NNW 06:28:41 41° W 06:32:52 10° SSW
Cosmos 1140 Rocket 3.5 06:26:39 10° NNW 06:31:52 67° WSW 06:37:03 10° SSE
SJ-12 4.2 06:29:05 10° NNE 06:33:07 71° ESE 06:37:07 10° S
Cosmos 2227 Rocket 2.2 06:28:20 10° SW 06:33:59 68° WNW 06:39:41 10° NNE
Cosmos 2263 Rocket 3.3 06:29:43 10° S 06:35:06 49° ESE 06:40:28 10° NE
Spot 4 Rocket 4.4 06:35:30 10° NNE 06:40:39 74° ESE 06:45:46 10° S
IRS-P3 4.2 06:36:09 10° N 06:41:25 59° WNW 06:46:39 10° SSW
Cosmos 2181 Rocket 4.0 06:36:51 10° NNW 06:42:55 60° W 06:48:54 10° S
Helios 1B rocket 3.0 06:39:58 10° NNE 06:43:56 61° ESE 06:47:53 10° S
